Location: Fossil View Observatory
(30.3980°N, 99.3522°W)
Time: 19:43:27
(UTC-06:00)

Hubble Space Telescope - Visible Passes

Search period start: 22 January 2019 00:00
Search period end: 01 February 2019 00:00
Orbit: 537 x 540 km, 28.5° (Epoch: 22 January)

Date Brightness Start Highest point End Pass type
(mag) Time Alt. Az. Time Alt. Az. Time Alt. Az.
22 Jan 1.4 05:34:05 54° SE 05:34:05 54° SE 05:37:28 10° E visible
23 Jan 2.0 05:24:15 40° ESE 05:24:15 40° ESE 05:27:01 10° E visible
23 Jan 1.7 07:00:04 10° W 07:03:57 39° SSW 07:07:50 10° SE visible
24 Jan 2.6 05:14:24 29° ESE 05:14:24 29° ESE 05:16:33 10° ESE visible
24 Jan 1.9 06:49:45 10° W 06:53:27 33° SSW 06:57:11 10° SE visible
25 Jan 3.2 05:04:34 21° ESE 05:04:34 21° ESE 05:06:05 10° ESE visible
25 Jan 2.2 06:39:55 13° WSW 06:42:57 28° SSW 06:46:30 10° SE visible
26 Jan 3.6 04:54:46 15° ESE 04:54:46 15° ESE 04:55:34 10° ESE visible
26 Jan 2.4 06:30:06 15° WSW 06:32:26 23° SSW 06:35:43 10° SSE visible
27 Jan 4.0 04:44:58 10° ESE 04:44:58 10° ESE 04:45:02 10° ESE visible
27 Jan 2.6 06:20:19 15° SW 06:21:54 19° SSW 06:24:49 10° SSE visible
28 Jan 2.8 06:10:35 14° SW 06:11:22 15° SSW 06:13:43 10° S visible
29 Jan 3.1 06:00:52 11° SSW 06:00:52 11° SSW 06:02:12 10° S visible
